Regional Weather Roundup
Issued by NWS Green Bay, WI

Home | Current Version | Previous Version | Text Only | Print | Product List | Glossary On
Versions: 1 2 3 4 5 6 7 8 9 10 11 12 13 14 15 16 17 18 19 20 21 22 23 24 25 26 27 28 29 30 31 32 33 34 35 36 37 38 39 40 41 42 43 44 45 46 47 48 49 50
000
ASUS43 KGRB 050400
RWRGRB

NORTH-CENTRAL AND NORTHEAST WISCONSIN REGIONAL WEATHER ROUNDUP
NATIONAL WEATHER SERVICE GREEN BAY WI
1100 PM CDT TUE AUG 04 2015

WIZ005-009-010>012-018-019-050500-
NORTH CENTRAL WISCONSIN

CITY           SKY/WX    TMP DP  RH WIND       PRES   REMARKS
IRONWOOD       CLEAR     48  48 100 CALM      30.04S
MANITOWISH WTR NOT AVBL
ARBOR VITAE    NOT AVBL
EAGLE RIVER    NOT AVBL
LAND O LAKES   NOT AVBL
RHINELANDER    CLOUDY    59  51  75 VRB3      30.08R
PHILLIPS       NOT AVBL
ANTIGO         NOT AVBL
TOMAHAWK       NOT AVBL
MERRILL        NOT AVBL
$$

WIZ013-073-050500-
NORTHEAST WISCONSIN

CITY           SKY/WX    TMP DP  RH WIND       PRES   REMARKS
IRON MOUNTAIN  CLEAR     54  49  83 CALM      30.04R
MARINETTE      PTCLDY    59  54  82 CALM      30.03R
$$

WIZ017-030-035>037-045-050500-
CENTRAL WISCONSIN

CITY           SKY/WX    TMP DP  RH WIND       PRES   REMARKS
MEDFORD        NOT AVBL
WAUSAU         CLEAR     62  54  74 N3        30.03R
MOSINEE        NOT AVBL
MARSHFIELD     CLEAR     60  54  80 CALM      30.04R
WISC RAPIDS    LGT RAIN  59  53  80 CALM      30.04R
STEVENS POINT  NOT AVBL
WAUPACA        NOT AVBL
SHAWANO        NOT AVBL
CLINTONVILLE   PTCLDY    57  54  88 NE3       30.03R
$$

WIZ038-039-048-051-050500-
FOX VALLEY

CITY           SKY/WX    TMP DP  RH WIND       PRES   REMARKS
NWS GREEN BAY  CLEAR     63  57  81 E6        30.03R
APPLETON       PTCLDY    63  52  67 NW6       30.02S
OSHKOSH        CLEAR     60  54  80 CALM      30.02R
FOND DU LAC    CLEAR     60  56  86 CALM      30.02R
$$

WIZ022-050-052-050500-
EAST CENTRAL WISCONSIN

CITY           SKY/WX    TMP DP  RH WIND       PRES   REMARKS
STURGEON BAY   PTCLDY    61  54  77 NE3       30.06R
MANITOWOC      NOT AVBL
SHEBOYGAN      CLEAR     59  56  89 CALM      30.02R
$$

LMZ563-521-522-541>543-050500-
LAKESHORE

STATION/POSITION TIME  TEMP    WIND        PRES    VSBY  WAVE
                       AIR SEA DIR/SP/G                  HT/PER
                 (UTC) (F)     (DEG/KT/KT) (MB)    (MI)  (FT/S)
SHEBOYGAN LKSHOR 0300   71     270/  1/  2 1016.3R
KEWAUNEE LKSHORE 0300   62      50/  4/  6 1015.7R
ALGOMA MARINA    0312             CALM       N/A
NORTHPORT PIER   0300   63      40/  5/  7 1016.6R
N MID LAKE BUOY  0250   63 68  340/ 12/ 14 1016.1R         1/ 3
SISTER BAY LKSHO 0303   61     100/  1/  5   N/A
CHAMBERS ISLAND  0300   65      40/  8/ 11 1016.3R
MENOMINEE LKSHOR 0300   65      50/  9/ 11 1017.2R
$$



USA.gov is the U.S. government's official web portal to all federal, state and local government web resources and services.